LEDSAT

Last updated on Sat Feb 08 2025 00:03:04 GMT+0000 (Coordinated Universal Time)

1 49069U 21073D 25038.77453588 .00045759 00000+0 10087-2 0 9993 2 49069 97.4057 116.7597 0013091 161.7084 198.4638 15.43693779192543
UTC large
Height (km)
Speed (km/s)
/
Latitude / Longitude
Inclination (degrees)
Orbital Period (minutes)
Azimuth
Elevation
Range (km)
Doppler Factor

Next 0 passes for location: London (51.5072 / 0.1276)

Sorry there are no passes over London.